TimePST,TemperatureF,Dew PointF,Humidity,Sea Level PressureIn,VisibilityMPH,Wind Direction,Wind SpeedMPH,Gust SpeedMPH,PrecipitationIn,Events,Conditions,WindDirDegrees,DateUTC
12:56 AM,54.0,34.0,47,29.55,10.0,NNE,9.2,-,0.00,,Overcast,20,2013-02-20 08:56:00
1:56 AM,52.0,37.0,57,29.55,10.0,ENE,6.9,-,N/A,,Overcast,70,2013-02-20 09:56:00
2:56 AM,51.1,39.0,63,29.54,10.0,Calm,Calm,-,N/A,,Overcast,0,2013-02-20 10:56:00
3:56 AM,48.9,36.0,61,29.55,10.0,WSW,11.5,-,0.00,,Overcast,250,2013-02-20 11:56:00
4:56 AM,48.9,37.0,64,29.56,10.0,SSW,6.9,-,N/A,,Overcast,210,2013-02-20 12:56:00
5:56 AM,48.9,37.9,66,29.57,10.0,SSW,5.8,-,0.00,,Overcast,210,2013-02-20 13:56:00
6:26 AM,44.6,37.4,76,29.62,8.0,West,13.8,-,0.01,Rain,Light Rain,260,2013-02-20 14:26:00
6:56 AM,42.1,37.0,82,29.60,10.0,WNW,18.4,-,0.03,Rain,Light Rain,290,2013-02-20 14:56:00
7:06 AM,42.8,37.4,81,29.63,10.0,WNW,16.1,-,0.00,Rain,Light Rain,290,2013-02-20 15:06:00
7:56 AM,43.0,37.9,82,29.64,10.0,WSW,8.1,-,0.02,Rain,Light Rain,250,2013-02-20 15:56:00
8:08 AM,42.8,37.4,81,29.67,10.0,WSW,8.1,-,0.01,Rain,Light Rain,240,2013-02-20 16:08:00
8:56 AM,44.1,36.0,73,29.67,10.0,West,10.4,-,0.03,,Overcast,260,2013-02-20 16:56:00
9:56 AM,45.0,37.0,74,29.69,10.0,WSW,12.7,-,0.00,,Overcast,250,2013-02-20 17:56:00
10:48 AM,46.4,35.6,66,29.72,10.0,WSW,8.1,-,N/A,,Overcast,250,2013-02-20 18:48:00
11:56 AM,46.9,37.9,71,29.70,10.0,West,3.5,-,0.00,Rain,Light Rain,280,2013-02-20 19:56:00
12:04 PM,46.4,37.4,71,29.73,10.0,WSW,3.5,-,0.00,Rain,Light Rain,250,2013-02-20 20:04:00
12:14 PM,46.4,39.2,76,29.73,10.0,WNW,5.8,-,0.00,Rain,Light Rain,290,2013-02-20 20:14:00
12:41 PM,46.4,37.4,71,29.74,10.0,West,5.8,-,0.00,Rain,Light Rain,260,2013-02-20 20:41:00
1:56 PM,50.0,37.0,61,29.73,10.0,SSW,3.5,-,N/A,,Overcast,200,2013-02-20 21:56:00
2:56 PM,50.0,37.0,61,29.74,10.0,Calm,Calm,-,N/A,,Overcast,0,2013-02-20 22:56:00
3:56 PM,50.0,39.0,66,29.75,10.0,SSW,5.8,-,N/A,,Overcast,200,2013-02-20 23:56:00
4:56 PM,50.0,37.9,63,29.76,10.0,ESE,9.2,-,N/A,,Mostly Cloudy,110,2013-02-21 00:56:00
5:56 PM,48.9,39.0,69,29.78,10.0,ESE,4.6,-,N/A,,Overcast,120,2013-02-21 01:56:00
6:56 PM,48.0,39.0,71,29.81,10.0,Calm,Calm,-,N/A,,Overcast,0,2013-02-21 02:56:00
7:56 PM,48.0,39.9,74,29.84,10.0,Calm,Calm,-,N/A,,Overcast,0,2013-02-21 03:56:00
8:56 PM,46.9,42.1,83,29.86,10.0,Calm,Calm,-,N/A,,Overcast,0,2013-02-21 04:56:00
9:56 PM,46.0,41.0,83,29.88,10.0,NW,3.5,-,N/A,,Overcast,310,2013-02-21 05:56:00
10:56 PM,46.0,39.0,76,29.88,10.0,Calm,Calm,-,N/A,,Mostly Cloudy,0,2013-02-21 06:56:00
11:56 PM,44.1,37.9,79,29.89,10.0,WSW,5.8,-,N/A,,Clear,250,2013-02-21 07:56:00